WetterOnline ( https://www.wetteronline.de )

Wetter aktuell Stimpfach

Aktuelles Wetter: Feuchtwangen-Heilbronn (475m)

6-stündlich | Neueste Meldungen
Ortszeit Temperatur Wetter
Mi, 21.08. 8:00 10.2° C Nebel
Mi, 21.08. 2:00 11.1° C wolkig
Di, 20.08. 20:00 13.3° C leichter Regen
Di, 20.08. 14:00 17.2° C Sprühregen
Di, 20.08. 8:00 14.0° C wolkig
Di, 20.08. 2:00 14.3° C wolkig
Mo, 19.08. 20:00 20.7° C bewölkt
Mo, 19.08. 14:00 21.0° C wolkig
Ortszeit Temperatur Wetter
Mi, 21.08. 9:30 13.0° C leicht bewölkt
Mi, 21.08. 9:20 13.0° C leicht bewölkt
Mi, 21.08. 9:10 12.4° C wolkig
Mi, 21.08. 9:00 11.7° C bewölkt
Mi, 21.08. 8:50 11.7° C bedeckt
Mi, 21.08. 8:40 11.7° C bedeckt
Mi, 21.08. 8:30 11.2° C bedeckt
Mi, 21.08. 8:00 10.2° C Nebel
Mi, 21.08. 7:30 9.9° C Nebel
Mi, 21.08. 7:00 10.2° C Nebel
Mi, 21.08. 6:30 10.1° C Nebel
Ortszeit Relative Feuchte Sichtweite
Mi, 21.08. 8:00 100% 100 m
Mi, 21.08. 2:00 99% 5.0 km
Di, 20.08. 20:00 96% 9 km
Di, 20.08. 14:00 74% 23 km
Di, 20.08. 8:00 92% 35 km
Di, 20.08. 2:00 96% 30 km
Mo, 19.08. 20:00 63% 55 km
Mo, 19.08. 14:00 66% >70 km
Ortszeit Relative Feuchte Sichtweite
Mi, 21.08. 9:30 89% 16 km
Mi, 21.08. 9:20 89% -
Mi, 21.08. 9:10 92% -
Mi, 21.08. 9:00 94% 4.6 km
Mi, 21.08. 8:50 94% -
Mi, 21.08. 8:40 94% -
Mi, 21.08. 8:30 99% 2.8 km
Mi, 21.08. 8:00 100% 100 m
Mi, 21.08. 7:30 100% 100 m
Mi, 21.08. 7:00 100% 100 m
Mi, 21.08. 6:30 100% 100 m
Ortszeit Niederschlagsmenge Niederschlagsart
Mi, 21.08. 8:00 2 l/m2 in 12 Std. -
Mi, 21.08. 2:00 2 l/m2 in 6 Std. Regen, Niederschlag
Di, 20.08. 20:00 5 l/m2 in 12 Std. Regen, Niederschlag
Di, 20.08. 14:00 0.2 l/m2 in 6 Std. Regen, Niederschlag
Di, 20.08. 8:00 0.0 l/m2 in 12 Std. -
Di, 20.08. 2:00 0.0 l/m2 in 6 Std. -
Mo, 19.08. 20:00 0.5 l/m2 in 12 Std. -
Mo, 19.08. 14:00 0.5 l/m2 in 6 Std. Regen, Niederschlag
Ortszeit Niederschlagsmenge Niederschlagsart
Mi, 21.08. 9:30 0.0 l/m2 in 1 Std. -
Mi, 21.08. 9:20 keine Meldung -
Mi, 21.08. 9:10 keine Meldung -
Mi, 21.08. 9:00 0.0 l/m2 in 1 Std. -
Mi, 21.08. 8:50 keine Meldung -
Mi, 21.08. 8:40 keine Meldung -
Mi, 21.08. 8:30 0.0 l/m2 in 1 Std. -
Mi, 21.08. 8:00 0.1 l/m2 in 1 Std. -
Mi, 21.08. 7:30 0.1 l/m2 in 1 Std. -
Mi, 21.08. 7:00 0.0 l/m2 in 1 Std. -
Mi, 21.08. 6:30 0.0 l/m2 in 1 Std. -
Ortszeit Stärke Spitze Richtung
km/h Bft. km/h Grad Sektor
Mi, 21.08. 8:00 4 1 11 230° SW
Mi, 21.08. 2:00 7 2 18 230° SW
Di, 20.08. 20:00 9 2 31 290° W
Di, 20.08. 14:00 4 1 18 330° NW
Di, 20.08. 8:00 4 1 7 350° N
Di, 20.08. 2:00 4 1 7 100° O
Mo, 19.08. 20:00 7 2 18 240° SW
Mo, 19.08. 14:00 9 2 26 220° SW
Ortszeit Stärke Spitze Richtung
km/h Bft. km/h Grad Sektor
Mi, 21.08. 9:30 2 1 6 310° NW
Mi, 21.08. 9:20 2 1 - 310° NW
Mi, 21.08. 9:10 4 1 - 280° W
Mi, 21.08. 9:00 4 1 7 330° NW
Mi, 21.08. 8:50 4 1 - 330° NW
Mi, 21.08. 8:40 4 1 - 330° NW
Mi, 21.08. 8:30 0 0 4 - -
Mi, 21.08. 8:00 4 1 4 230° SW
Mi, 21.08. 7:30 0 0 4 - -
Mi, 21.08. 7:00 2 1 6 270° W
Mi, 21.08. 6:30 4 1 7 200° S
Ortszeit Untergrenze Bedeckung Gattung
total tief tief mittel hoch
Mi, 21.08. 8:00 <30 m 8/8 0/8 - - -
Mi, 21.08. 2:00 90 m 7/8 1/8 - - -
Di, 20.08. 20:00 180 m 8/8 8/8 - - -
Di, 20.08. 14:00 1500 m 8/8 8/8 - - -
Di, 20.08. 8:00 1380 m 8/8 2/8 - - -
Di, 20.08. 2:00 1800 m 8/8 3/8 - - -
Mo, 19.08. 20:00 4500 m 8/8 7/8 - - -
Mo, 19.08. 14:00 1500 m 7/8 5/8 - - -
Ortszeit Bedeckungsgrad in Achtel und Wolkenuntergrenze
Mi, 21.08. 9:30 2(90m)
Mi, 21.08. 9:20 2(90m)
Mi, 21.08. 9:10 5(90m)
Mi, 21.08. 9:00 5(90m)
Mi, 21.08. 8:50 9 9 9
Mi, 21.08. 8:40 9 9 9
Mi, 21.08. 8:30 8(30m) 9 9
Mi, 21.08. 8:00 8(<30m)
Mi, 21.08. 7:30 8(<30m)
Mi, 21.08. 7:00 8(<30m)
Mi, 21.08. 6:30 8(<30m)
Ortszeit Luftdruck NN (hPa) Tendenz (hPa in 3 Std.)
Mi, 21.08. 8:00 1030 + 0,9
Mi, 21.08. 2:00 1028 + 0,8
Di, 20.08. 20:00 1026 + 1,8
Di, 20.08. 14:00 1022 + 0,5
Di, 20.08. 8:00 1021 + 0,4
Di, 20.08. 2:00 1021 + 0,6
Mo, 19.08. 20:00 1018 + 0,6
Mo, 19.08. 14:00 1017 + 0,4
Ortszeit Luftdruck NN (hPa) Tendenz (hPa in 3 Std.)
Mi, 21.08. 9:30 1029 + 0,4
Mi, 21.08. 9:20 1029 keine Meldung
Mi, 21.08. 9:10 1030 keine Meldung
Mi, 21.08. 9:00 1030 + 0,8
Mi, 21.08. 8:50 1030 keine Meldung
Mi, 21.08. 8:40 1030 keine Meldung
Mi, 21.08. 8:30 1030 + 0,8
Mi, 21.08. 8:00 1030 + 0,9
Mi, 21.08. 7:30 1030 + 0,8
Mi, 21.08. 7:00 1030 + 0,7
Mi, 21.08. 6:30 1030 + 0,6
Ortszeit Schneehöhe (cm)
Mi, 21.08. 8:00 -
Mi, 21.08. 2:00 -
Di, 20.08. 20:00 -
Di, 20.08. 14:00 -
Di, 20.08. 8:00 -
Di, 20.08. 2:00 -
Mo, 19.08. 20:00 -
Mo, 19.08. 14:00 -
Ortszeit Schneehöhe (cm)
Mi, 21.08. 9:30 -
Mi, 21.08. 9:20 -
Mi, 21.08. 9:10 -
Mi, 21.08. 9:00 -
Mi, 21.08. 8:50 -
Mi, 21.08. 8:40 -
Mi, 21.08. 8:30 -
Mi, 21.08. 8:00 -
Mi, 21.08. 7:30 -
Mi, 21.08. 7:00 -
Mi, 21.08. 6:30 -
Link zu dieser Seite / Seite empfehlen

Das Wetter in ...